Regional Weather Roundup
Issued by NWS

Home | Current Version | Previous Version | Text Only | Print | Product List | Glossary Off
Versions: 1 2 3 4 5 6 7 8 9 10 11 12 13 14 15 16 17 18 19 20 21 22 23 24 25 26 27 28 29 30 31 32 33 34 35 36 37 38 39 40 41 42 43 44 45 46 47 48 49 50

000
ASUS43 KOAX 212002
RWRNE

WEATHER ROUNDUP FOR NEBRASKA
NATIONAL WEATHER SERVICE OMAHA NE
200 PM CST SAT JAN 21 2017

NOTES: SATELLITE DATA IS BEING USED TO AUGMENT CLOUD COVER ABOVE
       12000 FEET.
       "FAIR" INDICATES FEW OR NO CLOUDS BELOW 12,000 FEET WITH NO
       SIGNIFICANT WEATHER AND/OR OBSTRUCTIONS TO VISIBILITY.

  * THESE STATIONS DO NOT REPORT WEATHER SUCH AS RAIN...SNOW OR FOG.

NEZ001>004-019>022-054>056-212100-
NEBRASKA PANHANDLE

CITY           SKY/WX    TMP DP  RH WIND       PRES   REMARKS
SCOTTSBLUFF    SUNNY     42  27  55 CALM      29.40F
ALLIANCE       SUNNY     44  27  51 W9        29.39F
CHADRON        SUNNY     36  27  69 NW5       29.42S WCI  32
SIDNEY         CLOUDY    41  24  51 S7        29.40F
$$

NEZ057>060-069>072-079>082-212100-
SOUTHWEST NEBRASKA

CITY           SKY/WX    TMP DP  RH WIND       PRES   REMARKS
NORTH PLATTE   SUNNY     47  31  53 W7        29.42S
IMPERIAL       SUNNY     47  27  45 CALM      29.40F
LEXINGTON      SUNNY     47  36  66 CALM      29.42S
MCCOOK         SUNNY     49  32  52 CALM      29.41F
OGALLALA       SUNNY     46  26  45 NW5       29.41F
$$

NEZ005>010-023>029-035>040-094-212100-
NORTH CENTRAL NEBRASKA

CITY           SKY/WX    TMP DP  RH WIND       PRES   REMARKS
VALENTINE      CLOUDY    43  30  60 NW12      29.40S
AINSWORTH      CLOUDY    47  33  56 W10       29.39S
BROKEN BOW     SUNNY     48  36  63 CALM      29.40S
O`NEILL        SUNNY     49  32  52 W12       29.40R
ORD            SUNNY     50  33  52 CALM      29.41R
THEDFORD       SUNNY     48  35  59 W3        29.41S
$$

NEZ041-046>049-061>064-073>077-083>087-212100-
SOUTH CENTRAL NEBRASKA

CITY           SKY/WX    TMP DP  RH WIND       PRES   REMARKS
GRAND ISLAND   SUNNY     50  37  61 S8        29.43S
AURORA         SUNNY     50  38  64 S7        29.43S
HASTINGS       SUNNY     49  38  65 VRB7      29.44F
HEBRON         MOSUNNY   50  40  68 SW5       29.44F
HOLDREGE       SUNNY     47  36  63 W3        29.42F
KEARNEY *      SUNNY    N/A N/A N/A MISG        N/A
YORK           SUNNY     48  39  71 S10       29.44S
$$

NEZ011>018-030>034-042>045-212100-
NORTHEAST NEBRASKA

CITY           SKY/WX    TMP DP  RH WIND       PRES   REMARKS
NORFOLK        SUNNY     47  34  60 NW9       29.40R
ALBION         SUNNY     48  18  30 W7        29.41R
BLAIR          MOSUNNY   47  40  77 SW12      29.42S
FREMONT        SUNNY     48  38  67 SW6       29.43S
TEKAMAH        MOSUNNY   48  38  68 W10       29.42F
WAYNE          PTSUNNY   46  38  72 W10       29.40S
$$

NEZ050>053-065>068-078-088>093-212100-
SOUTHEAST NEBRASKA

CITY           SKY/WX    TMP DP  RH WIND       PRES   REMARKS
LINCOLN        SUNNY     51  38  60 SW9       29.45F
OMAHA EPPLEY   MOSUNNY   50  38  63 S8        29.43S
BEATRICE       SUNNY     52  41  67 SW8       29.45F
FALLS CITY     SUNNY     53  40  61 SW7       29.44F
NEBRASKA CITY  MOSUNNY   51  40  67 SW12      29.44F
PLATTSMOUTH    MOSUNNY   50  40  67 SW12      29.44F
$$

NEZ044-045-051>053-067-212100-
OMAHA AREA

CITY           SKY/WX    TMP DP  RH WIND       PRES   REMARKS
OMAHA EPPLEY   MOSUNNY   50  38  63 S8        29.43S
BLAIR          MOSUNNY   47  40  77 SW12      29.42S
FREMONT        SUNNY     48  38  67 SW6       29.43S
MILLARD        MOSUNNY   52  40  64 SW9       29.44S
OFFUTT AFB     SUNNY     51  42  72 SW10      29.43F
PLATTSMOUTH    MOSUNNY   50  40  67 SW12      29.44F
WAHOO          FAIR      50  39  66 SW8       29.43S
$$



USA.gov is the U.S. government's official web portal to all federal, state and local government web resources and services.